Flag for Spain Weather past 2 weeks in Santa Cruz de Tenerife, Canary Islands, Spain

Now
66 °F

Passing clouds.


Feels Like: 66 °F
Forecast: 75 / 81 °F
Wind: 8 mph from West

Location: Tenerife / Los Rodeos

Current Time: Aug 31, 2015 at 1:36:53 AM

Latest Report: Aug 30, 2015 at 11:00 PM


Visibility: N/A

Pressure: 30.15 "Hg

Humidity: 88%

Dew point: 63 °F

Location of Santa Cruz de TenerifeLocation

Historic Weather in Santa Cruz de Tenerife — Graph

°F

Santa Cruz de Tenerife temperature yesterday

Maximum temperature yesterday: 77 °F (at 2:00 PM)
Minimum temperature yesterday: 63 °F (at 6:00 AM)
Average temperature yesterday: 70 °F

Past Weeks' High & Low Weather Summary

 TemperatureHumidityPressure
High77 °F (Aug 30, 2:00 PM)100% (Aug 16, 9:00 PM)30.24 "Hg (Aug 16, 9:00 PM)
Low63 °F (Aug 16, 6:00 AM)53% (Aug 19, 6:30 PM)30.01 "Hg (Aug 29, 6:00 PM)
Average68 °F83%30.14 "Hg
* Reported Aug 15 11:00 PM — Aug 30 11:00 PM, Santa Cruz de Tenerife, Weather by CustomWeather, © 2015

Note: Actual official high and low records may vary slightly from our data, if they occured in-between our weather recording intervals... More about our weather records

Advertising

Santa Cruz de Tenerife weather history for previous 24 hours

 ConditionsComfort  
Time TempWeatherWind HumidityBarometerVisibility
11:00 PM
Sun, Aug 30
66 °FPassing clouds.8 mph88%30.15 "HgN/A
10:30 PM66 °FClear.3 mph94%30.15 "Hg10 mi
10:00 PM66 °FPassing clouds.5 mph94%30.15 "HgN/A
9:30 PM68 °FPassing clouds.9 mph88%30.12 "HgN/A
9:00 PM70 °FPassing clouds.8 mph83%30.12 "HgN/A
8:30 PM70 °FPassing clouds.7 mph83%30.12 "HgN/A
8:00 PM72 °FPassing clouds.9 mph78%30.12 "HgN/A
7:30 PM72 °FPassing clouds.8 mph78%30.12 "HgN/A
7:00 PM72 °FPassing clouds.13 mph78%30.12 "HgN/A
6:30 PM72 °FPassing clouds.14 mph78%30.12 "HgN/A
6:00 PM73 °FPassing clouds.10 mph74%30.12 "HgN/A
5:30 PM73 °FScattered clouds.12 mph69%30.09 "HgN/A
5:00 PM75 °FScattered clouds.10 mph69%30.12 "HgN/A
4:30 PM75 °FScattered clouds.10 mph69%30.12 "HgN/A
4:00 PM77 °FScattered clouds.8 mph65%30.09 "HgN/A
3:30 PM75 °FPassing clouds.1 mph69%30.09 "HgN/A
3:00 PM73 °FScattered clouds.9 mph78%30.12 "HgN/A
2:30 PM77 °FPassing clouds.5 mph65%30.12 "HgN/A
2:00 PM77 °FPassing clouds.6 mph61%30.09 "HgN/A
1:30 PM75 °FPassing clouds.9 mph61%30.12 "HgN/A
1:00 PM75 °FPassing clouds.9 mph61%30.09 "HgN/A
12:30 PM73 °FPassing clouds.9 mph65%30.09 "HgN/A
12:00 PM72 °FPassing clouds.13 mph73%30.09 "HgN/A
11:30 AM73 °FPassing clouds.7 mph69%30.12 "HgN/A
11:00 AM70 °FPassing clouds.5 mph78%30.12 "HgN/A
10:30 AM70 °FPassing clouds.8 mph78%30.09 "HgN/A
10:00 AM68 °FScattered clouds.10 mph88%30.09 "HgN/A
9:30 AM66 °FFog.12 mph94%30.09 "HgN/A
9:00 AM66 °FFog.10 mph94%30.07 "HgN/A
8:30 AM64 °FPassing clouds.8 mph94%30.07 "HgN/A
8:00 AM63 °FPassing clouds.10 mph94%30.07 "HgN/A
7:30 AM63 °FPassing clouds.10 mph100%30.07 "HgN/A
7:00 AM63 °FPassing clouds.10 mph94%30.07 "HgN/A
6:30 AM63 °FPassing clouds.13 mph94%30.07 "HgN/A
6:00 AM63 °FPassing clouds.13 mph94%30.04 "HgN/A
Weather by CustomWeather, © 2015

See weather overviewHow to use our weather pages